Tracking 28531 objects as of 26-Feb-2024
HD Live streaming from Space Station
objects crossing your sky now

NOAA 16 DEB

Track NOAA 16 DEB now!
10-day predictions


NORAD ID: 41151
Int'l Code: 2000-055CJ
Perigee: 836.8 km
Apogee: 934.3 km
Inclination: 98.8 °
Period: 102.5 minutes
Semi major axis: 7256 km
RCS: Unknown
Launch date: September 21, 2000
Source: United States (US)
Launch site: AIR FORCE WESTERN TEST RANGE (AFWTR)

Note: This is SATELLITE DEBRIS
Your satellite tracking list
Your tracking list is empty




NASA's NSSDC Master Catalog

Two Line Element Set (TLE):
1 41151U 00055CJ  24053.80006207  .00004340  00000-0  26936-2 0  9998
2 41151  98.7932  64.0042 0067136 215.7901 143.8758 14.04458253420161
Source of the keplerian elements: AFSPC